Weather History for Ciudad Juarez, Mexico

Change the Weather History Date:

Friday, December 14, 2012

  Actual Average Record
Temperature  
Mean Temperature 50 °F -  
Max Temperature 59 °F 57 °F 71 °F (2010)
Min Temperature 42 °F 35 °F 24 °F (1997)
Degree Days  
Heating Degree Days 14    
Moisture  
Dew Point 35 °F    
Average Humidity 57    
Maximum Humidity 87    
Minimum Humidity 40    
Precipitation  
Precipitation 0.05 in - - ()
Sea Level Pressure  
Sea Level Pressure 29.85 in    
Wind  
Wind Speed 17 mph ()    
Max Wind Speed 29 mph    
Max Gust Speed 40 mph    
Visibility 8.0 miles    
Events Rain    
Averages and records for this station are not official NWS values.
T = Trace of Precipitation, MM = Missing Value Source: Averaged Metar Reports

Daily Weather History Graph

Daily Weather History Graph

Search for Another Location

Airport:

Trip Planner

Search our weather history database for the weather conditions in past years. The results will help you decide how hot, cold, wet, or windy it might be!

Date:

Astronomy

Dec. 14, 2012 Rise Set
Actual Time 6:57 AM MST 5:03 PM MST
Civil Twilight 6:30 AM MST 5:30 PM MST
Nautical Twilight 6:00 AM MST 6:01 PM MST
Astronomical Twilight 5:30 AM MST 6:30 PM MST
Moon 8:07 AM MST (12/14) 6:55 PM MST (12/14)
Length of Visible Light 10h 59m
Length of Day
10h 06m
Waxing Crescent, 3% of the Moon is Illuminated
Dec 14
Waxing Crescent
Dec 19
First Quarter
Dec 28
Full
Jan 4
Last Quarter
Jan 11
New

Hourly Weather History & Observations

Time (MST) Temp. Windchill Dew Point Humidity Pressure Visibility Wind Dir Wind Speed Gust Speed Precip Events Conditions
7:10 AM 53.6 °F - 41.0 °F 62% 29.76 in 10.0 mi South 11.5 mph - N/A   Overcast
7:47 AM 55.4 °F - 39.2 °F 54% 29.57 in 10.0 mi South 17.3 mph - N/A   Overcast
8:40 AM 59.0 °F - 39.2 °F 48% 29.76 in 10.0 mi South 20.7 mph - N/A   Mostly Cloudy
9:40 AM 59.0 °F - 39.2 °F 48% 29.76 in 8.0 mi SSW 16.1 mph - N/A   Scattered Clouds
10:10 AM 59.0 °F - 39.2 °F 48% 29.79 in 0.1 mi West 23.0 mph 34.5 mph N/A   Unknown
10:48 AM 57.2 °F - 44.6 °F 63% 29.82 in 5.0 mi West 23.0 mph 34.5 mph N/A Rain Light Rain
11:48 AM 46.4 °F 37.4 °F 42.8 °F 87% 29.86 in 6.0 mi West 28.8 mph - N/A Rain Light Rain
12:53 PM 46.4 °F 37.4 °F 42.8 °F 87% 29.86 in 10.0 mi West 28.8 mph - N/A   Mostly Cloudy
1:55 PM 46.4 °F 37.4 °F 39.2 °F 76% 29.73 in 5.0 mi West 28.8 mph 40.3 mph N/A   Widespread Dust
2:42 PM 53.6 °F - 32.0 °F 44% 29.89 in 4.0 mi West 23.0 mph 34.5 mph N/A   Widespread Dust
3:45 PM 53.6 °F - 32.0 °F 44% 29.91 in 4.0 mi West 28.8 mph 40.3 mph N/A   Widespread Dust
4:47 PM 50.0 °F - 30.2 °F 47% 29.78 in 10.0 mi West 23.0 mph 34.5 mph N/A   Scattered Clouds
5:41 PM 50.0 °F - 26.6 °F 40% 29.92 in 10.0 mi West 23.0 mph - N/A   Scattered Clouds
6:47 PM 48.2 °F - 28.4 °F 46% 29.93 in 10.0 mi West 23.0 mph - N/A   Clear
7:45 PM 48.2 °F - 30.2 °F 50% 29.82 in 10.0 mi West 23.0 mph - N/A   Clear
8:46 PM 48.2 °F - 33.8 °F 58% 29.99 in 10.0 mi WNW 11.5 mph - N/A   Clear
9:41 PM 46.4 °F 41.9 °F 30.2 °F 53% 30.00 in 10.0 mi WNW 9.2 mph - N/A   Clear
10:45 PM 42.8 °F 38.6 °F 30.2 °F 61% 29.91 in 10.0 mi North 6.9 mph - N/A   Clear
11:46 PM 42.8 °F 39.3 °F 30.2 °F 61% 30.01 in 10.0 mi NW 5.8 mph - N/A   Clear